Find Starlink 31517

NORAD ID: 59213 Int'l Des: 2024-046 Owner: SPXS Country: US Constellation: starlink operational
LEOCIRCULAR

Live Position

Loading 3D Globe...

About Starlink 31517

Description loading...

Upcoming Passes

Passes for default location (London). Set your location on the main map for personalized predictions.

Altitude History

Loading altitude history...

Two-Line Element Set

1 59213U 24046N 26121.50002315 .00014760 00000-0 44747-3 0 9991
2 59213 53.1609 269.8729 0001334 72.3970 76.0875 15.34374173 5903
Epoch: May 1, 2026 • Age: 11 hours

Current Status

Altitude 466.9 km
Velocity 7.64 km/s
Sub-Earth Point 45.82°N, 164.23°W
Launch Date Mar 11, 2024
Age 2.1 years
Type internet

Technical Details

Classification Payload
Mass 730.00 kg
Dry Mass 700.00 kg
Total Mass 730.00 kg
Length 0.30 m
Diameter 4.10 m
Span 29.00 m
Shape Box + pan
Manufacturer SPXS
Bus Type Starlink V2M
Phase Status In Orbit
Owner/State SPXS/US

Most Searched